P/2016 A2 ( Christensen ) 2025

Japanese version
Home page
Updated on May 13, 2024

---------------------------------------------------------------------

* Profile

* Orbital Elements

Epoch 2025 Oct. 12.0 TT = JDT 2460960.5
T 2025 Oct. 22.87016 TT                                 MPCW
q   3.4627586            (2000.0)            P               Q
n   0.09489591     Peri.  141.34077     +0.23265941     -0.88028283
a   4.7603372      Node   291.60609     +0.74461278     +0.43472598
e   0.2725812      Incl.   26.40642     +0.62563681     -0.19004066
P  10.39
From 44 observations 2016 Jan. 2-17, mean residual 0".5.

* Magnitudes Graph

        m1 = 12.0 + 5 log d + 10.0 log r

---------------------------------------------------------------------

The orbital elements are published on M.P.E.C. 2016-K18.
The magnitudes graphs are made with Comet for Windows.

---------------------------------------------------------------------

Copyright(C) Seiichi Yoshida (comet@aerith.net). All rights reserved.